Regional Weather Roundup
Issued by NWS

Home | Current Version | Previous Version | Graphics & Text | Print | Product List | Glossary On
Versions: 1 2 3 4 5 6 7 8 9 10 11 12 13 14 15 16 17 18 19 20 21 22 23 24 25 26 27 28 29 30 31 32 33 34 35 36 37 38 39 40 41 42 43 44 45 46 47 48 49 50
000
ASUS43 KIND 271809
RWRIN

WEATHER ROUNDUP FOR INDIANA
NATIONAL WEATHER SERVICE INDIANAPOLIS IN
100 PM EST MON FEB 27 2017

NOTE: "FAIR" INDICATES FEW OR NO CLOUDS BELOW 12,000 FEET WITH NO
SIGNIFICANT WEATHER AND/OR OBSTRUCTIONS TO VISIBILITY.

* - STATION DOES NOT REPORT WEATHER SUCH AS PRECIPITATION OR FOG.

+ - STATION NOT QUALITY CONTROLLED BY THE NATIONAL WEATHER SERVICE.
    USE DATA WITH CAUTION...ESPECIALLY DEWPOINT AND RELATIVE
    HUMIDITY OBSERVATIONS.

INZ001>003-010>013-019-020-271900-
NORTHWEST INDIANA

CITY           SKY/WX    TMP DP  RH WIND       PRES   REMARKS
GARY /AIRPORT/ MOSUNNY   50  32  50 S9        30.17F
KNOX *+        MOSUNNY   48  14  25 S12       30.17F
LA PORTE +     MOSUNNY   47  35  63 S8        30.17F
6HR MIN TEMP:  25; 6HR MAX TEMP:  47;

MICHIGAN CITY+ SUNNY     50  34  53 SW9       30.17F
MONTICELLO +   SUNNY     49  34  54 S6        30.16F
6HR MIN TEMP:  29; 6HR MAX TEMP:  49;

RENSSELAER +   MOSUNNY   52  32  46 S13       30.16F
VALPARAISO     PTSUNNY   48  35  60 VRB5      30.17F
6HR MIN TEMP:  27; 6HR MAX TEMP:  50;


$$

LMZ046-743>745-271900-
SOUTHERN LAKE MICHIGAN

STATION/POSITION TIME  TEMP    WIND        PRES    WAVE
                       AIR SEA DIR/SP/G            HT
                 (UTC) (F)     (DEG/KT/KT) (MB)    (FT)
BURNS HARBOR     1740   46     180/  8/ 16 1022.0F
MICHIGAN CITY    1740   45     170/ 11/ 13   N/A

$$

INZ004-005-014>016-021>024-271900-
NORTH CENTRAL INDIANA

CITY           SKY/WX    TMP DP  RH WIND       PRES   REMARKS
GOSHEN         MOSUNNY   48  33  56 S9G18     30.18F
6HR MIN TEMP:  29; 6HR MAX TEMP:  48;

LOGANSPORT +   MOSUNNY   50  34  53 S9        30.18F
PERU/GRISSOM   MOSUNNY   51  34  52 S8        30.16F
6HR MIN TEMP:  31; 6HR MAX TEMP:  51;

ROCHESTER +    CLOUDY    50  36  57 S5        30.18F
SOUTH BEND     MOSUNNY   48  32  53 S13       30.18F
6HR MIN TEMP:  27; 6HR MAX TEMP:  48;

WARSAW +       SUNNY     46  34  61 S6        30.18F

$$

INZ006>009-017-018-025>027-271900-
NORTHEAST INDIANA

CITY           SKY/WX    TMP DP  RH WIND       PRES   REMARKS
ANGOLA *+      PTSUNNY   46  34  61 S8        30.18F
AUBURN +       PTSUNNY   45  32  61 S3        30.20F
FORT WAYNE     PTSUNNY   48  35  60 VRB3      30.20F
6HR MIN TEMP:  28; 6HR MAX TEMP:  48; 6HR PCP: TRACE;

HUNTINGTON +   MOSUNNY   48  32  54 S8        30.19F
6HR MIN TEMP:  28; 6HR MAX TEMP:  49;

KENDALLVILLE + PTSUNNY   47  34  61 S8        30.18F

$$

INZ028-029-035-036-043>045-051>053-271900-
WEST CENTRAL INDIANA

CITY           SKY/WX    TMP DP  RH WIND       PRES   REMARKS
GREENCASTLE +  PTSUNNY   52  37  58 SE7       30.18S
LAFAYETTE      SUNNY     52  34  50 VRB6      30.15F
6HR MIN TEMP:  34; 6HR MAX TEMP:  52; 6HR PCP: TRACE;

TERRE HAUTE    SUNNY     55  37  50 S7        30.17F
6HR MIN TEMP:  40; 6HR MAX TEMP:  55;


$$

INZ030>032-037>040-046>048-054>057-064-065-271900-
CENTRAL INDIANA

CITY           SKY/WX    TMP DP  RH WIND       PRES   REMARKS
ANDERSON       PTSUNNY   50  37  62 S12G17    30.20F
CP ATTERBURY + CLOUDY    48  37  66 SE13      30.21S
COLUMBUS       CLOUDY    46  39  76 SE14      30.22S
FISHERS *+     PTSUNNY   52  41  66 S9        30.18
FRANKFORT +    MOSUNNY   56  37  49 S7        30.18F
6HR MIN TEMP:  38; 6HR MAX TEMP:  56;

GREENWOOD *+   PTSUNNY   51  38  60 S9        30.20F
6HR MIN TEMP:  41; 6HR MAX TEMP:  52;

INDIANAPOLIS   PTSUNNY   52  37  56 S10       30.18F
6HR MIN TEMP:  40; 6HR MAX TEMP:  52;

-EAGLE CREEK   CLOUDY    52  37  56 S8        30.17F
6HR MIN TEMP:  41; 6HR MAX TEMP:  52;

KOKOMO +       MOSUNNY   52  35  52 S12       30.19F
6HR MIN TEMP:  34; 6HR MAX TEMP:  52; 6HR PCP:  0.02;

MARION +       SUNNY     50  32  50 S6        30.19F
MT COMFORT *+  MOSUNNY   50  37  62 SE12      30.19F
SHELBYVILLE    CLOUDY    51  37  58 S15       30.20S
6HR MIN TEMP:  41; 6HR MAX TEMP:  51;

ZIONSVILLE +   MOSUNNY   49  37  61 S6        30.18F
6HR MIN TEMP:  38; 6HR MAX TEMP:  51;


$$

INZ033-034-041-042-049-050-058-059-271900-
EAST CENTRAL INDIANA

CITY           SKY/WX    TMP DP  RH WIND       PRES   REMARKS
MUNCIE         CLOUDY    51  37  58 VRB7      30.20S
6HR MIN TEMP:  41; 6HR MAX TEMP:  51;


$$

INZ060-061-067>069-081>083-085>088-271900-
SOUTHWEST INDIANA

CITY           SKY/WX    TMP DP  RH WIND       PRES   REMARKS
EVANSVILLE     CLOUDY    52  44  74 SE5       30.18F
6HR MIN TEMP:  44; 6HR MAX TEMP:  52; 6HR PCP:  0.01;

HUNTINGBURG *+ CLOUDY    48  45  89 SE9       30.19F
6HR MIN TEMP:  42; 6HR MAX TEMP:  48; 6HR PCP:  0.04;

WASHINGTON +   CLOUDY    49  41  72 SE12      30.19F
6HR MIN TEMP:  41; 6HR MAX TEMP:  49;


$$

INZ062-063-066-070>080-084-089>092-271900-
SOUTH CENTRAL AND SOUTHEAST INDIANA

CITY           SKY/WX    TMP DP  RH WIND       PRES   REMARKS
BEDFORD +      CLOUDY    46  39  76 SE8       30.20F
BLOOMINGTON    CLOUDY    48  38  68 SE14      30.19S
6HR MIN TEMP:  42; 6HR MAX TEMP:  50; 6HR PCP: TRACE;

MADISON *+     CLOUDY    45  43  93 SE5       30.25F
NORTH VERNON + RAIN     N/A N/A N/A SE5       30.24S
SEYMOUR +      CLOUDY    46  45  93 S7        30.23F

$$




USA.gov is the U.S. government's official web portal to all federal, state and local government web resources and services.